Location: Ajisawe
(8.4333°N, 4.3833°E)
Time: 23:44:14
(UTC+00:00)

S-56A Canister/Altair - Pass Details

Date: 26 April 2021
Orbit: 631 x 2501 km, 38.9° (Epoch: 15 May)

Event Time Altitude Azimuth Distance (km) Brightness Sun altitude
Exits shadow 03:08:18 13° 13° (NNE) 1,825 9.8 -33.9°
Maximum altitude 03:09:39 15° 33° (NNE) 1,718 9.8 -33.6°
Drops below altitude 10° 03:12:09 10° 68° (ENE) 2,001 10.5 -33.0°
Sets 03:15:28 0° 93° (E) 2,984 11.5 -32.3°
